When you browse on this site, cookies collect data to enhance your experience and personalize the content and advertising you see.
Visit our Privacy Policy to learn more. By continuing to use the site, you agree to this use of cookies and data.
  • In Sweden
  • List of Countries
  • For 7 days
  • Water Temperature
  • Weather Map
  • Weather Widgets
  • user-avatar
    Login

    Hourly Weather Consett

    Today, 21 September, Saturday

    Time Temperature Precipitation Wind Pressure Humidity
    00:00 +11°C° 0 mm 3 mps 744 mmHg 93%
    01:00 +10°C° 0 mm 3 mps 744 mmHg 93%
    02:00 +10°C° 0 mm 4 mps 743 mmHg 93%
    03:00 +10°C° 0 mm 4 mps 743 mmHg 93%
    04:00 +9°C° 0 mm 3 mps 742 mmHg 93%
    05:00 +9°C° 0 mm 3 mps 742 mmHg 93%
    06:00 +9°C° 0 mm 3 mps 741 mmHg 93%
    07:00 +11°C° 0 mm 4 mps 741 mmHg 87%
    08:00 +12°C° 0 mm 4 mps 741 mmHg 81%
    09:00 +14°C° 0 mm 5 mps 740 mmHg 75%
    10:00 +15°C° 0 mm 5 mps 740 mmHg 70%
    11:00 +16°C° 0 mm 6 mps 740 mmHg 66%
    12:00 +17°C° 0 mm 6 mps 740 mmHg 61%
    13:00 +19°C° 0 mm 6 mps 739 mmHg 61%
    14:00 +19°C° 0 mm 6 mps 738 mmHg 62%
    15:00 +19°C° 0 mm 6 mps 738 mmHg 62%
    16:00 +17°C° 0 mm 5 mps 738 mmHg 68%
    17:00 +15°C° 0 mm 5 mps 737 mmHg 74%
    18:00 +14°C° 0 mm 4 mps 737 mmHg 80%
    19:00 +13°C° 0 mm 3 mps 737 mmHg 83%
    20:00 +12°C° 0 mm 3 mps 736 mmHg 86%
    21:00 +11°C° 0 mm 3 mps 736 mmHg 89%
    22:00 +12°C° 0 mm 2 mps 736 mmHg 89%
    23:00 +12°C° 0 mm 2 mps 735 mmHg 89%

    Tomorrow, 22 September, Sunday

    Time Temperature Precipitation Wind Pressure Humidity
    00:00 +10°C° 0 mm 2 mps 735 mmHg 90%
    01:00 +10°C° 0 mm 2 mps 734 mmHg 89%
    02:00 +10°C° 0 mm 2 mps 734 mmHg 89%
    03:00 +12°C° 0 mm 2 mps 734 mmHg 88%
    04:00 +12°C° 0 mm 2 mps 733 mmHg 88%
    05:00 +12°C° 0 mm 2 mps 733 mmHg 87%
    06:00 +13°C° 0 mm 2 mps 733 mmHg 87%
    07:00 +14°C° 0 mm 2 mps 732 mmHg 86%
    08:00 +15°C° 0 mm 2 mps 732 mmHg 84%
    09:00 +16°C° 0 mm 2 mps 732 mmHg 83%
    10:00 +17°C° 0.1 mm 2 mps 732 mmHg 81%
    11:00 +18°C° 0.1 mm 3 mps 732 mmHg 80%
    12:00 +19°C° 0.1 mm 3 mps 732 mmHg 78%
    13:00 +19°C° 0.1 mm 4 mps 731 mmHg 78%
    14:00 +19°C° 0.1 mm 4 mps 731 mmHg 78%
    15:00 +20°C° 0.1 mm 4 mps 731 mmHg 78%
    16:00 +18°C° 0.6 mm 4 mps 731 mmHg 84%
    17:00 +17°C° 0.6 mm 3 mps 731 mmHg 89%
    18:00 +16°C° 0.6 mm 3 mps 731 mmHg 94%
    19:00 +15°C° 0.9 mm 2 mps 731 mmHg 94%
    20:00 +15°C° 0.9 mm 2 mps 732 mmHg 93%
    21:00 +14°C° 0.9 mm 2 mps 732 mmHg 93%
    22:00 +14°C° 0 mm 2 mps 732 mmHg 93%
    23:00 +13°C° 0 mm 2 mps 732 mmHg 93%

    Day after tomorrow, 23 September, Monday

    Time Temperature Precipitation Wind Pressure Humidity
    00:00 +13°C° 0 mm 2 mps 732 mmHg 93%
    01:00 +13°C° 0 mm 2 mps 733 mmHg 93%
    02:00 +12°C° 0 mm 2 mps 733 mmHg 93%
    03:00 +12°C° 0 mm 2 mps 733 mmHg 93%
    04:00 +12°C° 0 mm 2 mps 733 mmHg 93%
    05:00 +12°C° 0 mm 2 mps 734 mmHg 93%
    06:00 +12°C° 0 mm 2 mps 734 mmHg 93%
    07:00 +12°C° 0 mm 3 mps 734 mmHg 89%
    08:00 +12°C° 0 mm 3 mps 734 mmHg 85%
    09:00 +13°C° 0 mm 4 mps 735 mmHg 81%
    10:00 +14°C° 0 mm 4 mps 735 mmHg 76%
    11:00 +15°C° 0 mm 4 mps 735 mmHg 70%
    12:00 +17°C° 0 mm 4 mps 735 mmHg 65%
    13:00 +17°C° 0 mm 4 mps 735 mmHg 66%
    14:00 +17°C° 0 mm 4 mps 735 mmHg 66%
    15:00 +17°C° 0 mm 4 mps 735 mmHg 66%
    16:00 +15°C° 0 mm 4 mps 734 mmHg 69%
    17:00 +14°C° 0 mm 4 mps 734 mmHg 71%
    18:00 +13°C° 0 mm 4 mps 734 mmHg 74%
    19:00 +13°C° 0 mm 4 mps 733 mmHg 76%
    20:00 +13°C° 0 mm 5 mps 733 mmHg 78%
    21:00 +13°C° 0 mm 6 mps 733 mmHg 80%
    22:00 +13°C° 0.1 mm 5 mps 732 mmHg 84%
    23:00 +13°C° 0.1 mm 5 mps 732 mmHg 88%

    24 September, Tuesday

    Time Temperature Precipitation Wind Pressure Humidity
    00:00 +13°C° 0.1 mm 5 mps 731 mmHg 91%
    01:00 +13°C° 0.4 mm 5 mps 731 mmHg 92%
    02:00 +13°C° 0.4 mm 4 mps 730 mmHg 94%
    03:00 +13°C° 0.4 mm 4 mps 730 mmHg 95%
    04:00 +13°C° 0.1 mm 4 mps 729 mmHg 95%
    05:00 +14°C° 0.1 mm 4 mps 729 mmHg 96%
    06:00 +14°C° 0.1 mm 3 mps 728 mmHg 96%
    07:00 +14°C° 0 mm 3 mps 728 mmHg 94%
    08:00 +15°C° 0 mm 4 mps 728 mmHg 93%
    09:00 +15°C° 0 mm 4 mps 728 mmHg 91%
    10:00 +15°C° 0.1 mm 4 mps 727 mmHg 91%
    11:00 +15°C° 0.1 mm 4 mps 727 mmHg 91%
    12:00 +15°C° 0.1 mm 4 mps 726 mmHg 90%
    13:00 +15°C° 1.3 mm 4 mps 726 mmHg 92%
    14:00 +16°C° 1.3 mm 3 mps 726 mmHg 93%
    15:00 +14°C° 1.3 mm 3 mps 725 mmHg 95%
    16:00 +14°C° 1 mm 3 mps 725 mmHg 96%
    17:00 +14°C° 1 mm 3 mps 724 mmHg 96%
    18:00 +13°C° 1 mm 3 mps 724 mmHg 97%
    19:00 +14°C° 1 mm 2 mps 724 mmHg 97%
    20:00 +14°C° 1 mm 2 mps 724 mmHg 96%
    21:00 +14°C° 1 mm 2 mps 724 mmHg 96%
    22:00 +13°C° 1 mm 2 mps 724 mmHg 95%
    23:00 +13°C° 1 mm 2 mps 724 mmHg 95%

    25 September, Wednesday

    Time Temperature Precipitation Wind Pressure Humidity
    00:00 +12°C° 1 mm 3 mps 724 mmHg 95%
    01:00 +12°C° 0.5 mm 3 mps 724 mmHg 95%
    02:00 +12°C° 0.5 mm 3 mps 724 mmHg 94%
    03:00 +12°C° 0.5 mm 3 mps 724 mmHg 94%
    04:00 +12°C° 0.2 mm 3 mps 724 mmHg 94%
    05:00 +12°C° 0.2 mm 3 mps 724 mmHg 95%
    06:00 +12°C° 0.2 mm 3 mps 724 mmHg 95%
    07:00 +12°C° 0.1 mm 3 mps 724 mmHg 94%
    08:00 +12°C° 0.1 mm 3 mps 725 mmHg 93%
    09:00 +13°C° 0.1 mm 3 mps 725 mmHg 92%
    10:00 +13°C° 0.2 mm 3 mps 725 mmHg 92%
    11:00 +13°C° 0.2 mm 3 mps 725 mmHg 92%
    12:00 +13°C° 0.2 mm 3 mps 725 mmHg 92%
    13:00 +13°C° 0.5 mm 3 mps 725 mmHg 93%
    14:00 +14°C° 0.5 mm 2 mps 725 mmHg 94%
    15:00 +14°C° 0.5 mm 2 mps 725 mmHg 94%
    16:00 +14°C° 0.5 mm 2 mps 726 mmHg 95%
    17:00 +14°C° 0.5 mm 2 mps 726 mmHg 95%
    18:00 +13°C° 0.5 mm 1 mps 726 mmHg 96%
    19:00 +13°C° 0 mm 1 mps 726 mmHg 95%
    20:00 +13°C° 0 mm 2 mps 726 mmHg 95%
    21:00 +13°C° 0 mm 2 mps 727 mmHg 94%
    22:00 +13°C° 0 mm 2 mps 727 mmHg 94%
    23:00 +13°C° 0 mm 2 mps 727 mmHg 94%

    26 September, Thursday

    Time Temperature Precipitation Wind Pressure Humidity
    00:00 +12°C° 0 mm 3 mps 727 mmHg 93%
    01:00 +11°C° 0 mm 3 mps 727 mmHg 93%
    02:00 +11°C° 0 mm 3 mps 727 mmHg 93%
    03:00 +10°C° 0 mm 2 mps 727 mmHg 92%
    04:00 +12°C° 0.1 mm 2 mps 727 mmHg 93%
    05:00 +12°C° 0.1 mm 2 mps 727 mmHg 94%
    06:00 +12°C° 0.1 mm 2 mps 727 mmHg 94%
    07:00 +11°C° 0.2 mm 4 mps 728 mmHg 91%
    08:00 +10°C° 0.2 mm 5 mps 728 mmHg 87%
    09:00 +10°C° 0.2 mm 7 mps 729 mmHg 84%
    10:00 +11°C° 0 mm 7 mps 729 mmHg 78%
    11:00 +12°C° 0 mm 7 mps 730 mmHg 72%
    12:00 +14°C° 0 mm 7 mps 730 mmHg 67%
    13:00 +14°C° 0.1 mm 7 mps 730 mmHg 67%
    14:00 +12°C° 0.1 mm 7 mps 730 mmHg 67%
    15:00 +12°C° 0.1 mm 7 mps 730 mmHg 68%
    16:00 +11°C° 0 mm 6 mps 731 mmHg 72%
    17:00 +10°C° 0 mm 6 mps 731 mmHg 75%
    18:00 +9°C° 0 mm 5 mps 731 mmHg 79%
    19:00 +9°C° 0 mm 5 mps 732 mmHg 80%
    20:00 +8°C° 0 mm 5 mps 732 mmHg 81%
    21:00 +8°C° 0 mm 4 mps 733 mmHg 82%
    22:00 +8°C° 0 mm 4 mps 733 mmHg 83%
    23:00 +8°C° 0 mm 4 mps 733 mmHg 84%
    Show more